NOAA 17 DEB

Satellite information

Favourite Embed

Satellite Type and Status

DEBRISIN ORBIT

Key statistics

Satellite NOAA 17 DEB at a glance.

Uptime

8468

Days in orbit

Revolutions

≈ 14.6

Per day

Orbit

SSO

Sun Synchronous Orbit

Inclination

98.7

Latest

Satellite identification and parameters

Extended collection of information and parameters for NOAA 17 DEB.

Object identification

Identified? True

Debris? True

Object name: NOAA 17 DEB

International designator: 2002-032CJ

Object number (NORAD): 48749

Object ID (CCSDS): 48749

Country: UNITED STATES OF AMERICA (US)

Current information (Y/N): Y

RCS size: SMALL

Orbital parameters

Period: 98.647 minutes

Inclination: 98.6996 deg

SMA: 7072.094 km

Apoapsis: 700.025 km

Periapsis: 687.894 km

RAAN: 217.7939 deg

Eccentricy: 0.00085764

Argument of periapsis: 59.8275 deg

Mean anomaly: 300.3772 deg

Mean motion: 14.59757436 rev/day

Mean motion (dot): 0.0002086 rev/day2

B* drag term: 0.0043657556 1/REarth

Two-line elements (TLE)

Creation date: Aug. 30, 2025, 3:38 a.m.

Reference frame: TEME

Reference center: EARTH

Epoch: Aug. 29, 2025, 9:19 a.m. UTC

TLE line 0: 0 NOAA 17 DEB

TLE line 1: 1 48749U 02032CJ 25241.38844212 .00020860 00000-0 43658-2 0 9999

TLE line 2: 2 48749 98.6996 217.7939 0008576 59.8275 300.3772 14.59757436231606

Live tracking on map

Real-time ground track for satellite NOAA 17 DEB.

In-orbit conjunctions

A list of the most updated potential collisions computed for object NOAA 17 DEB.

Target Orbit TCA Probability of collision Miss distance Type
SARA SSO 2025-08-04 19:49:01 0.0002178928 98.0 (m) PAYLOAD
FENGYUN 1C DEB SSO 2024-11-15 16:35:07 0.0001915338 448.0 (m) DEBRIS

Associated space launch

NOAA M carried weather imagers and microwave and infrared sounders, as well as a SARSAT search-and-rescue package. It had an on-orbit mass of 1475 kg.

NOAA 17 DEB was lifted into orbit during the mission ‘Titan II SLV | NOAA 17’, on board a Titan II SLV space rocket.

The launch took place on June 24, 2002, 6:23 p.m. from Space Launch Complex 4W.

For more information about the launch, click the button.

Launch to space Titan II SLV | NOAA 17
Titan II SLV | NOAA 17

Agency: N/A

Status: Launch Successful

Launch date: June 24, 2002, 6:23 p.m. UTC

Rocket: Titan II SLV

Launch pad: Space Launch Complex 4W

Location: Vandenberg SFB, CA, USA

...

Latest news about this satellite

There are no fresh news available about this satellite. Check back as we update our databases every day.


Newsletter sign-up

Weekly statistics, charts and insights to help you stay on top of the space industry.